This is the latest recevied weather packets stored in our database for station/object DB0RV-13. If no packets are shown the sender has not sent any weather packets the latest 10 day(s).
| Time | Temp. | Humidity | Pressure | Rain* | Wind** | Luminosity | Snow |
|---|---|---|---|---|---|---|---|
| 1777860001 | 10.56° C | 68% | 1014.2 hPa | - | - | - | - |
| 1777859702 | 10.56° C | 69% | 1014.2 hPa | - | - | - | - |
| 1777859401 | 11.11° C | 68% | 1014.3 hPa | - | - | - | - |
| 1777859102 | 11.11° C | 68% | 1014.3 hPa | - | - | - | - |
| 1777858802 | 11.11° C | 67% | 1014.3 hPa | - | - | - | - |
| 1777858502 | 11.11° C | 68% | 1014.2 hPa | - | - | - | - |
| 1777858203 | 11.11° C | 67% | 1014.2 hPa | - | - | - | - |
| 1777857902 | 11.11° C | 68% | 1014.3 hPa | - | - | - | - |
| 1777857601 | 11.11° C | 67% | 1014.1 hPa | - | - | - | - |
| 1777857302 | 11.11° C | 67% | 1014.2 hPa | - | - | - | - |
| 1777857002 | 11.67° C | 66% | 1014.3 hPa | - | - | - | - |
| 1777856701 | 11.11° C | 66% | 1014.4 hPa | - | - | - | - |
| 1777856402 | 11.67° C | 64% | 1014.4 hPa | - | - | - | - |
| 1777856102 | 12.22° C | 62% | 1014.3 hPa | - | - | - | - |
| 1777855801 | 12.22° C | 61% | 1014.5 hPa | - | - | - | - |
| 1777855502 | 12.22° C | 61% | 1014.5 hPa | - | - | - | - |
| 1777855202 | 12.22° C | 61% | 1014.4 hPa | - | - | - | - |
| 1777854901 | 12.78° C | 61% | 1014.6 hPa | - | - | - | - |
| 1777854602 | 12.78° C | 60% | 1014.6 hPa | - | - | - | - |
| 1777854302 | 12.78° C | 61% | 1014.6 hPa | - | - | - | - |
| 1777854001 | 12.78° C | 61% | 1014.8 hPa | - | - | - | - |
| 1777853702 | 12.22° C | 62% | 1014.7 hPa | - | - | - | - |
| 1777853402 | 11.11° C | 65% | 1014.8 hPa | - | - | - | - |
| 1777853101 | 11.11° C | 65% | 1014.8 hPa | - | - | - | - |
| 1777852802 | 11.67° C | 64% | 1014.8 hPa | - | - | - | - |
* Rain since midnight (hover to see other rain measurements)
** Current wind speed in m/s (hover to see current wind gust speed)